Stündliche Wetter Juchowo

Heute, 7 März, Sonntag

Zeit Temperatur Niederschläge Wind Luftdruck Luftfeuchtigkeit
00:00 -2°C° 0 mm 7 m/S 752 mmHg 78%
01:00 -2°C° 0 mm 7 m/S 751 mmHg 78%
02:00 -2°C° 0 mm 7 m/S 751 mmHg 80%
03:00 -3°C° 0 mm 7 m/S 750 mmHg 82%
04:00 -3°C° 0 mm 7 m/S 749 mmHg 83%
05:00 -3°C° 0.1 mm 7 m/S 749 mmHg 86%
06:00 -3°C° 0.1 mm 7 m/S 749 mmHg 89%
07:00 -3°C° 0 mm 7 m/S 748 mmHg 90%
08:00 -3°C° 0.1 mm 7 m/S 748 mmHg 88%
09:00 -2°C° 0.1 mm 8 m/S 748 mmHg 85%
10:00 -2°C° 0.1 mm 8 m/S 748 mmHg 82%
11:00 -2°C° 0.1 mm 8 m/S 748 mmHg 84%
12:00 -2°C° 0.1 mm 8 m/S 747 mmHg 87%
13:00 -1°C° 0 mm 7 m/S 747 mmHg 92%
14:00 -1°C° 0.2 mm 7 m/S 747 mmHg 93%
15:00 -1°C° 0.2 mm 7 m/S 746 mmHg 94%
16:00 -1°C° 0.2 mm 7 m/S 746 mmHg 95%
17:00 -1°C° 0.5 mm 5 m/S 746 mmHg 93%
18:00 -2°C° 0.5 mm 4 m/S 746 mmHg 91%
19:00 -1°C° 0.5 mm 3 m/S 746 mmHg 89%
20:00 -2°C° 0 mm 3 m/S 747 mmHg 86%
21:00 -2°C° 0 mm 3 m/S 747 mmHg 82%
22:00 -3°C° 0 mm 2 m/S 747 mmHg 79%
23:00 -3°C° 0 mm 2 m/S 748 mmHg 77%

Morgen, 8 März, Montag

Zeit Temperatur Niederschläge Wind Luftdruck Luftfeuchtigkeit
00:00 -3°C° 0 mm 2 m/S 748 mmHg 75%
01:00 -3°C° 0 mm 2 m/S 748 mmHg 73%
02:00 -3°C° 0 mm 2 m/S 749 mmHg 73%
03:00 -3°C° 0 mm 2 m/S 749 mmHg 73%
04:00 -3°C° 0 mm 2 m/S 749 mmHg 73%
05:00 -3°C° 0 mm 2 m/S 749 mmHg 73%
06:00 -3°C° 0 mm 2 m/S 750 mmHg 73%
07:00 -3°C° 0 mm 2 m/S 750 mmHg 73%
08:00 -2°C° 0 mm 3 m/S 751 mmHg 66%
09:00 -1°C° 0 mm 3 m/S 751 mmHg 60%
10:00 -1°C° 0 mm 4 m/S 752 mmHg 53%
11:00 -1°C° 0 mm 4 m/S 752 mmHg 52%
12:00 0°C° 0 mm 4 m/S 752 mmHg 51%
13:00 0°C° 0 mm 4 m/S 752 mmHg 49%
14:00 0°C° 0 mm 4 m/S 752 mmHg 51%
15:00 -1°C° 0 mm 4 m/S 752 mmHg 53%
16:00 -1°C° 0 mm 4 m/S 752 mmHg 55%
17:00 -1°C° 0 mm 3 m/S 752 mmHg 62%
18:00 -3°C° 0 mm 2 m/S 752 mmHg 69%
19:00 -2°C° 0 mm 1 m/S 752 mmHg 75%
20:00 -2°C° 0 mm 1 m/S 753 mmHg 75%
21:00 -2°C° 0 mm 1 m/S 753 mmHg 75%
22:00 -2°C° 0 mm 1 m/S 753 mmHg 75%
23:00 -3°C° 0 mm 0 m/S 753 mmHg 75%

übermorgen, 9 März, Dienstag

Zeit Temperatur Niederschläge Wind Luftdruck Luftfeuchtigkeit
00:00 -3°C° 0 mm 0 m/S 753 mmHg 74%
01:00 -3°C° 0 mm 0 m/S 753 mmHg 74%
02:00 -3°C° 0 mm 0 m/S 752 mmHg 74%
03:00 -3°C° 0 mm 0 m/S 752 mmHg 74%
04:00 -3°C° 0 mm 0 m/S 752 mmHg 74%
05:00 -3°C° 0 mm 0 m/S 752 mmHg 73%
06:00 -2°C° 0 mm 0 m/S 752 mmHg 72%
07:00 -1°C° 0 mm 1 m/S 752 mmHg 71%
08:00 -1°C° 0 mm 1 m/S 752 mmHg 65%
09:00 0°C° 0 mm 1 m/S 752 mmHg 59%
10:00 +1°C° 0 mm 1 m/S 752 mmHg 52%
11:00 +2°C° 0 mm 1 m/S 751 mmHg 47%
12:00 +3°C° 0 mm 1 m/S 751 mmHg 42%
13:00 +3°C° 0 mm 1 m/S 751 mmHg 37%
14:00 +3°C° 0 mm 1 m/S 751 mmHg 37%
15:00 +3°C° 0 mm 1 m/S 751 mmHg 38%
16:00 +3°C° 0 mm 1 m/S 750 mmHg 38%
17:00 +2°C° 0 mm 1 m/S 750 mmHg 43%
18:00 +1°C° 0 mm 1 m/S 750 mmHg 48%
19:00 -1°C° 0 mm 1 m/S 750 mmHg 53%
20:00 -1°C° 0 mm 1 m/S 751 mmHg 54%
21:00 -1°C° 0 mm 1 m/S 751 mmHg 55%
22:00 -1°C° 0 mm 1 m/S 751 mmHg 57%
23:00 -1°C° 0 mm 1 m/S 751 mmHg 57%

10 März, Mittwoch

Zeit Temperatur Niederschläge Wind Luftdruck Luftfeuchtigkeit
00:00 -1°C° 0 mm 1 m/S 751 mmHg 58%
01:00 -1°C° 0 mm 1 m/S 751 mmHg 59%
02:00 -1°C° 0 mm 1 m/S 751 mmHg 59%
03:00 -1°C° 0 mm 1 m/S 750 mmHg 59%
04:00 -1°C° 0 mm 1 m/S 750 mmHg 59%
05:00 -1°C° 0 mm 1 m/S 751 mmHg 58%
06:00 -2°C° 0 mm 0 m/S 751 mmHg 57%
07:00 -2°C° 0 mm 0 m/S 751 mmHg 56%
08:00 -1°C° 0 mm 0 m/S 751 mmHg 50%
09:00 +1°C° 0 mm 0 m/S 751 mmHg 44%
10:00 +2°C° 0 mm 0 m/S 752 mmHg 38%
11:00 +4°C° 0 mm 1 m/S 752 mmHg 36%
12:00 +5°C° 0 mm 1 m/S 752 mmHg 33%
13:00 +5°C° 0 mm 1 m/S 752 mmHg 30%
14:00 +5°C° 0 mm 1 m/S 752 mmHg 33%
15:00 +5°C° 0 mm 1 m/S 751 mmHg 35%
16:00 +5°C° 0 mm 1 m/S 751 mmHg 38%
17:00 +3°C° 0 mm 1 m/S 751 mmHg 42%
18:00 +1°C° 0 mm 2 m/S 750 mmHg 47%
19:00 -2°C° 0 mm 2 m/S 750 mmHg 52%
20:00 -2°C° 0 mm 2 m/S 750 mmHg 54%
21:00 -2°C° 0 mm 2 m/S 750 mmHg 56%
22:00 -2°C° 0 mm 3 m/S 750 mmHg 57%
23:00 -2°C° 0 mm 3 m/S 749 mmHg 59%

11 März, Donnerstag

Zeit Temperatur Niederschläge Wind Luftdruck Luftfeuchtigkeit
00:00 -3°C° 0 mm 4 m/S 749 mmHg 61%
01:00 -3°C° 0 mm 4 m/S 748 mmHg 63%
02:00 -2°C° 0 mm 5 m/S 747 mmHg 65%
03:00 -2°C° 0 mm 5 m/S 746 mmHg 68%
04:00 -2°C° 0 mm 5 m/S 745 mmHg 70%
05:00 -2°C° 0 mm 6 m/S 744 mmHg 71%
06:00 -2°C° 0 mm 6 m/S 743 mmHg 71%
07:00 -2°C° 0 mm 6 m/S 742 mmHg 72%
08:00 -1°C° 0.7 mm 7 m/S 741 mmHg 80%
09:00 -1°C° 0.7 mm 7 m/S 741 mmHg 88%
10:00 -1°C° 0.7 mm 8 m/S 740 mmHg 95%
11:00 -1°C° 1.3 mm 8 m/S 739 mmHg 95%
12:00 0°C° 1.3 mm 7 m/S 738 mmHg 94%
13:00 0°C° 1.3 mm 7 m/S 738 mmHg 94%
14:00 +2°C° 0.7 mm 7 m/S 737 mmHg 94%
15:00 +3°C° 0.7 mm 7 m/S 736 mmHg 94%
16:00 +3°C° 0.7 mm 6 m/S 735 mmHg 95%
17:00 +4°C° 0.4 mm 6 m/S 735 mmHg 93%
18:00 +4°C° 0.4 mm 6 m/S 735 mmHg 91%
19:00 +5°C° 0.4 mm 5 m/S 735 mmHg 89%
20:00 +3°C° 0.1 mm 5 m/S 735 mmHg 88%
21:00 +3°C° 0.1 mm 5 m/S 736 mmHg 87%
22:00 +2°C° 0.1 mm 5 m/S 736 mmHg 86%
23:00 +2°C° 0 mm 5 m/S 736 mmHg 87%

12 März, Freitag

Zeit Temperatur Niederschläge Wind Luftdruck Luftfeuchtigkeit
00:00 +2°C° 0 mm 5 m/S 737 mmHg 87%
01:00 +1°C° 0 mm 5 m/S 737 mmHg 88%
02:00 +2°C° 0 mm 6 m/S 737 mmHg 87%
03:00 +2°C° 0 mm 6 m/S 737 mmHg 86%
04:00 +2°C° 0 mm 6 m/S 737 mmHg 85%
05:00 +2°C° 0.1 mm 7 m/S 737 mmHg 84%
06:00 +2°C° 0.1 mm 7 m/S 737 mmHg 83%
07:00 +2°C° 0.1 mm 7 m/S 738 mmHg 82%
08:00 +2°C° 0.1 mm 7 m/S 738 mmHg 80%
09:00 +2°C° 0.1 mm 7 m/S 739 mmHg 77%
10:00 +2°C° 0.1 mm 7 m/S 739 mmHg 75%
11:00 +3°C° 0 mm 7 m/S 740 mmHg 71%
12:00 +3°C° 0 mm 7 m/S 740 mmHg 68%
13:00 +4°C° 0 mm 7 m/S 740 mmHg 65%
14:00 +4°C° 0 mm 7 m/S 740 mmHg 65%
15:00 +4°C° 0 mm 7 m/S 740 mmHg 64%
16:00 +4°C° 0 mm 6 m/S 740 mmHg 64%
17:00 +4°C° 0 mm 6 m/S 740 mmHg 68%
18:00 +3°C° 0 mm 6 m/S 740 mmHg 73%
19:00 +2°C° 0 mm 5 m/S 740 mmHg 78%
20:00 +2°C° 0.1 mm 5 m/S 739 mmHg 80%
21:00 +2°C° 0.1 mm 5 m/S 739 mmHg 82%
22:00 +2°C° 0.1 mm 6 m/S 739 mmHg 85%
23:00 +2°C° 0 mm 6 m/S 739 mmHg 83%
Mehr zeigen

Wir brauchen deine Erlaubnis

Meteoprog und unser Service Anbieter werden persönliche Daten aufbewahren, so wie Cookies, Geräte Bezeichnung oder ähnliche Technologien von deinem Gerät und Prozess, so wie Persönliche Daten Inhalte und Werbungen, genauso wie social Media und den Verkehr zu analysieren.

  • Aufbewahrung und/oder Zugang zu deiner Geräte Informationen.

    Cookies, Geräte Bezeichnung oder andere Informationen, können aufbewahrt oder Zugang zu deinem Gerät erhalten, für den Grund, der oben angegeben wird.

  • Personalisierte Werbung und Inhalte, Messungen, Einblick in das Publikum und Produkt Entwicklung.

    Werbungen und Inhalte können personalisiert werden, basierend auf ein Profil. Mehr Daten können besser personalisierte Werbungen und Inhalte hinzufügen. Werbung und Inhalte können gezeigt und gemessen werden. Einblicke über das Publikum, welche die Werbung gesehen haben und den Inhalt, können abgeleitet werden. So wie Daten können genutzt werden, um es zu verbessern oder die Benutzer Erfahrung zu verbessern das System und die Software.

Wenn du “Ich stimme zu” klickst, erlaubst du uns, die Cookies zu benutzen die Geräte Bezeichnung, den Web oder ähnliche Technologien zu benutzen. Deine Settings, können in deinem Gerät bei deinem Browser geändert werden.

Für den bestimmten Zweck, berechtigten Interessen beruhen darauf, mehr als auf den Inhalt. Du kannst mehr darüber in unseren Privaten und Cookie Politik lesen.